CW8405 Weather Reports


time (UTC)temp
F
wind
direction
speed
knots
gust
knots
rain 1hr
in
rain 24hr
in
rain mn
in
humidity
%
barometer
mb
20260507012529 56 290 0.0 0.0 0.00 0.00 0.00 84 1018.6
20260507011547 56 290 0.0 0.0 0.00 0.00 0.00 85 1018.6
20260507010549 55 290 0.0 0.0 0.00 0.00 0.00 85 1018.7
20260507005613 56 291 0.0 0.0 0.00 0.00 0.00 84 1018.7
20260507004625 56 290 0.0 0.0 0.00 0.00 0.00 84 1018.8
20260507003616 56 293 0.0 0.0 0.00 0.00 0.00 84 1018.7
20260507002640 56 296 0.0 0.0 0.00 0.00 0.00 83 1018.7
20260507000505 56 298 0.0 0.0 0.00 0.00 0.00 83 1018.6
20260506235519 56 298 0.0 0.0 0.00 0.00 0.00 84 1018.6
20260506234521 56 298 0.0 0.0 0.00 0.00 0.00 84 1018.7
20260506233502 56 298 0.0 0.0 0.00 0.00 0.00 84 1018.7
20260506231350 56 298 0.0 0.0 0.00 0.00 0.00 84 1018.8
20260506225243 55 296 0.0 1.7 0.00 0.00 0.00 85 1018.8
20260506224230 55 295 0.0 0.0 0.00 0.00 0.00 85 1018.8
20260506223234 55 295 0.0 0.0 0.00 0.00 0.00 85 1018.9
20260506222245 56 295 0.0 0.0 0.00 0.00 0.00 85 1018.9
20260506221214 55 295 0.0 0.0 0.00 0.00 0.00 85 1018.9
20260506220231 55 294 0.0 1.7 0.00 0.00 0.00 85 1019.0
20260506215205 55 283 0.0 0.0 0.00 0.00 0.00 86 1019.0
20260506214220 55 279 0.0 0.0 0.00 0.00 0.00 86 1019.1
20260506213241 55 288 0.0 0.0 0.00 0.00 0.00 86 1019.1
20260506211124 55 317 0.0 0.0 0.00 0.00 0.00 85 1019.0
20260506210121 54 323 0.0 0.0 0.00 0.00 0.00 86 1019.0
20260506203944 57 225 0.0 1.7 0.00 0.00 0.00 80 1018.9
20260506202916 57 232 0.0 4.3 0.00 0.00 0.00 79 1018.8
20260506201842 57 206 0.0 2.6 0.00 0.00 0.00 81 1018.8
20260506200835 56 191 0.0 4.3 0.00 0.00 0.00 81 1018.7
20260506195845 56 224 0.9 4.3 0.00 0.00 0.00 82 1018.7
20260506194838 56 174 0.9 5.2 0.00 0.00 0.00 82 1018.8
20260506193903 56 222 1.7 5.2 0.00 0.00 0.00 81 1018.6
20260506192859 56 225 0.9 2.6 0.00 0.00 0.00 82 1018.6
20260506191840 56 201 0.0 1.7 0.00 0.00 0.00 83 1018.6
20260506190857 55 228 0.9 5.2 0.00 0.00 0.00 83 1018.6
20260506185906 55 200 0.9 4.3 0.00 0.00 0.00 82 1018.5
20260506184856 56 184 0.9 5.2 0.00 0.00 0.00 82 1018.4
20260506183841 56 159 0.9 5.2 0.00 0.00 0.00 81 1018.4
20260506181752 56 190 0.0 0.9 0.00 0.00 0.00 83 1018.3
20260506175612 55 219 1.7 8.7 0.00 0.00 0.00 85 1018.4
20260506174553 55 208 1.7 8.7 0.00 0.00 0.00 84 1017.5
20260506173543 55 194 0.9 5.2 0.00 0.00 0.00 84 1018.2
20260506172508 55 226 0.9 5.2 0.00 0.00 0.00 85 1017.9
20260506171511 55 220 0.9 3.5 0.00 0.00 0.00 85 1017.8
20260506165407 55 181 0.9 5.2 0.00 0.00 0.00 85 1017.7
20260506164344 55 167 0.9 5.2 0.00 0.00 0.00 85 1017.9
20260506163323 55 176 0.9 3.5 0.00 0.00 0.00 85 1017.9
20260506162332 55 218 0.0 0.9 0.00 0.00 0.00 85 1018.2
20260506160142 55 194 0.0 3.5 0.00 0.00 0.00 86 1017.9
20260506155205 55 226 0.9 5.2 0.00 0.00 0.00 87 1017.8
20260506154159 54 159 0.9 5.2 0.00 0.00 0.00 87 1017.5
20260506153209 54 213 0.9 5.2 0.00 0.00 0.00 87 1017.5
20260506152145 54 177 0.0 7.0 0.00 0.00 0.00 88 1017.4
20260506151144 54 184 0.0 5.2 0.00 0.00 0.00 88 1017.5
20260506150110 54 180 0.0 2.6 0.00 0.00 0.00 88 1017.6
20260506145123 54 190 0.0 41.7 0.00 0.00 0.00 88 1017.6
20260506144106 54 180 0.0 1.7 0.00 0.00 0.00 88 1017.8
20260506143123 53 175 0.0 1.7 0.00 0.00 0.00 88 1017.4
20260506135813 53 233 0.9 7.0 0.00 0.00 0.00 89 1017.4
20260506132532 53 184 6.1 63.4 0.00 0.00 0.00 89 1017.3
20260506131544 53 225 30.4 113.8 0.00 0.00 0.00 89 1017.4
20260506130609 53 221 15.6 47.8 0.00 0.00 0.00 90 1017.0
20260506124444 53 197 0.9 20.0 0.00 0.00 0.00 91 1016.9
20260506123420 53 175 0.0 0.0 0.00 0.00 0.00 91 1016.9
20260506121320 52 218 0.0 0.0 0.00 0.00 0.00 91 1016.9
20260506120306 52 218 0.0 0.0 0.00 0.00 0.00 92 1016.8
20260506115252 52 218 0.0 0.0 0.00 0.00 0.00 92 1016.8
20260506114245 52 230 0.0 8.7 0.00 0.00 0.00 93 1016.8
20260506113233 51 241 0.0 0.0 0.00 0.00 0.00 93 1016.6
20260506112235 51 242 0.0 0.0 0.00 0.00 0.00 93 1016.5
20260506111247 51 242 0.0 0.0 0.00 0.00 0.00 93 1016.5
20260506110247 51 242 0.0 0.0 0.00 0.00 0.00 94 1016.4
20260506105305 50 242 0.0 0.0 0.00 0.00 0.00 94 1016.3
20260506104254 50 242 0.0 0.0 0.00 0.00 0.00 93 1016.1
20260506103302 50 242 0.0 0.0 0.00 0.00 0.00 93 1016.1
20260506102311 49 242 0.0 0.0 0.00 0.00 0.00 93 1016.1
20260506101335 49 242 0.0 0.0 0.00 0.00 0.00 94 1016.1
20260506095306 48 242 0.0 0.0 0.00 0.00 0.00 93 1016.0
20260506094233 48 242 0.0 0.0 0.00 0.00 0.00 93 1015.9
20260506093229 48 242 0.0 0.0 0.00 0.00 0.00 93 1015.7
20260506091119 48 242 0.0 0.0 0.00 0.00 0.00 93 1015.7
20260506085045 48 242 0.0 0.0 0.00 0.00 0.00 93 1015.7
20260506082920 48 242 0.0 0.0 0.00 0.00 0.00 92 1015.5
20260506081922 49 242 0.0 0.0 0.00 0.00 0.00 92 1015.5
20260506080943 49 242 0.0 0.0 0.00 0.00 0.00 92 1015.3
20260506071705 49 242 0.0 0.0 0.00 0.00 0.00 92 1015.0
20260506061248 51 242 0.0 0.0 0.00 0.00 0.00 90 1014.6
20260506060300 51 242 0.0 0.0 0.00 0.00 0.00 90 1014.6
20260506051134 52 242 0.0 0.0 0.00 0.00 0.00 89 1014.1
20260506044919 53 242 0.0 0.0 0.00 0.00 0.00 88 1013.8
20260506043936 53 242 0.0 0.0 0.00 0.00 0.00 88 1013.8
20260506041835 53 242 0.0 0.0 0.00 0.00 0.00 87 1013.6
20260506040855 54 242 0.0 0.0 0.00 0.00 0.00 86 1013.5
20260506035842 54 242 0.0 0.0 0.00 0.00 0.00 86 1013.5
20260506034835 55 242 0.0 0.0 0.00 0.00 0.00 84 1013.4
20260506033814 55 242 0.0 0.0 0.00 0.00 0.00 83 1013.3
20260506032818 56 242 0.0 0.0 0.00 0.00 0.00 83 1013.3
20260506031838 56 242 0.0 0.0 0.00 0.00 0.00 82 1013.3
20260506030810 57 242 0.0 0.0 0.00 0.00 0.00 80 1013.3
20260506025740 58 242 0.0 0.0 0.00 0.00 0.00 79 1013.3
20260506024751 59 242 0.0 0.9 0.00 0.00 0.00 78 1013.2
20260506023756 60 242 0.0 0.0 0.00 0.00 0.00 78 1013.1
20260506021656 59 242 0.0 0.0 0.00 0.00 0.00 82 1013.2
20260506015535 62 194 0.0 0.0 0.00 0.00 0.00 75 1013.0
20260506014501 64 200 0.0 1.7 0.00 0.00 0.00 74 1012.9
20260506013452 64 177 0.0 5.2 0.00 0.00 0.00 72 1012.9